Location: Unspecified
(52.4292°N, 19.3359°E)
Time: 01:58:17
(UTC+02:00)

Vanguard 1 Rocket - Pass Details

Date: 24 May 2024
Orbit: 649 x 4221 km, 34.3° (Epoch: 13 June)

Event Time Altitude Azimuth Distance (km) Brightness Sun altitude
Rises 06:34:53 0° 187° (S) 8,451 12.1 15.7°
Reaches altitude 10° 06:45:08 10° 169° (S) 7,198 12.0 17.2°
Maximum altitude 06:55:58 15° 142° (SE) 6,138 12.1 18.8°
Drops below altitude 10° 07:04:54 10° 113° (ESE) 5,856 12.7 20.2°
Sets 07:11:21 0° 94° (E) 6,184 13.1 21.2°
